User: anonymous   Login
Location: Newark
(52.3735°N, 16.9806°E)
Time: 15:37:05
(UTC+00:00)
Language:

FO-29 - Orbit

View from above orbital plane
View from above orbital plane
View from above satellite
View from above satellite

Ground track
Ground track

The orbit data is extracted from the following two-line orbital elements,

1 24278U 96046B   21332.08697290 -.00000017  00000-0  15884-4 0  9999
2 24278  98.5456  18.2214 0351316  85.6348 278.4841 13.53107925248625
Epoch (UTC): 28 November 2021 02:05:14
Eccentricity: 0.0351316
inclination: 98.5456°
perigee height: 799 km
apogee height: 1322 km
right ascension of ascending node: 18.2214°
argument of perigee: 85.6348°
revolutions per day: 13.53107925
mean anomaly at epoch: 278.4841°
orbit number at epoch: 24862

The dashed part of the orbit path shows where the satellite is in the earth's shadow,  

DLR